QFA0227 YSSY-YBBN

Flight info

Callsign QFA0227
Flight time 1h 12m
Altitude 35000
Route OLSEM Y193 BANDA H252 BN
Aircraft A21N/M-SDE2E3FGHIRWXY/LB1

Departure

Time 2026-05-05 06:19
Airport Sydney Kingsford Smith International Airport (YSSY)

Arrival

Time 2026-05-05 07:31
Airport Brisbane International Airport (YBBN)
Time Latitude Longitude Altitude Speed Heading
2026-05-05 05:40 -33.93127 151.17755 22 ft 0 kts 190°
2026-05-05 06:05 -33.93112 151.17758 22 ft 2 kts 190°
2026-05-05 06:05 -33.93096 151.17761 22 ft 2 kts 197°
2026-05-05 06:06 -33.93082 151.17770 22 ft 2 kts 221°
2026-05-05 06:06 -33.93071 151.17786 22 ft 2 kts 241°
2026-05-05 06:06 -33.93065 151.17804 22 ft 2 kts 261°
2026-05-05 06:06 -33.93064 151.17821 22 ft 0 kts 278°
2026-05-05 06:07 -33.93066 151.17828 22 ft 0 kts 281°
2026-05-05 06:10 -33.93066 151.17827 22 ft 0 kts 280°
2026-05-05 06:10 -33.93062 151.17801 22 ft 6 kts 280°
2026-05-05 06:10 -33.93050 151.17747 22 ft 7 kts 291°
2026-05-05 06:11 -33.93026 151.17691 22 ft 8 kts 299°
2026-05-05 06:11 -33.93007 151.17612 21 ft 10 kts 281°
2026-05-05 06:11 -33.93039 151.17540 21 ft 11 kts 202°
2026-05-05 06:11 -33.93126 151.17526 19 ft 14 kts 168°
2026-05-05 06:12 -33.93247 151.17557 17 ft 18 kts 168°
2026-05-05 06:12 -33.93390 151.17592 13 ft 17 kts 174°
2026-05-05 06:12 -33.93509 151.17592 9 ft 17 kts 168°
2026-05-05 06:12 -33.93670 151.17656 9 ft 17 kts 153°
2026-05-05 06:13 -33.93750 151.17688 9 ft 16 kts 166°
2026-05-05 06:13 -33.93851 151.17740 9 ft 14 kts 131°
2026-05-05 06:13 -33.93934 151.17787 11 ft 13 kts 168°
2026-05-05 06:13 -33.94027 151.17812 12 ft 13 kts 168°
2026-05-05 06:14 -33.94127 151.17839 14 ft 15 kts 168°
2026-05-05 06:14 -33.94250 151.17870 18 ft 18 kts 168°
2026-05-05 06:14 -33.94382 151.17905 23 ft 19 kts 167°
2026-05-05 06:14 -33.94521 151.17882 25 ft 13 kts 176°
2026-05-05 06:15 -33.94586 151.17900 25 ft 14 kts 166°
2026-05-05 06:15 -33.94688 151.17926 26 ft 15 kts 168°
2026-05-05 06:15 -33.94841 151.17969 27 ft 18 kts 168°
2026-05-05 06:15 -33.94931 151.17990 25 ft 20 kts 168°
2026-05-05 06:16 -33.95067 151.18027 22 ft 13 kts 163°
2026-05-05 06:16 -33.95100 151.18124 21 ft 14 kts 77°
2026-05-05 06:16 -33.95078 151.18248 20 ft 15 kts 78°
2026-05-05 06:16 -33.95055 151.18382 18 ft 17 kts 78°
2026-05-05 06:17 -33.95027 151.18527 17 ft 18 kts 78°
2026-05-05 06:17 -33.94998 151.18689 15 ft 19 kts 78°
2026-05-05 06:17 -33.95003 151.18822 15 ft 14 kts 129°
2026-05-05 06:17 -33.95079 151.18863 14 ft 2 kts 169°
2026-05-05 06:18 -33.95101 151.18869 14 ft 3 kts 168°
2026-05-05 06:18 -33.95218 151.18900 12 ft 47 kts 167°
2026-05-05 06:18 -33.95775 151.19045 11 ft 113 kts 168°
2026-05-05 06:18 -33.96735 151.19293 63 ft 159 kts 167°
2026-05-05 06:19 -33.97845 151.19560 555 ft 165 kts 167°
2026-05-05 06:19 -33.98882 151.20096 1140 ft 169 kts 134°
2026-05-05 06:19 -33.99455 151.21359 1780 ft 171 kts 116°
2026-05-05 06:19 -33.99979 151.22685 2141 ft 181 kts 120°
2026-05-05 06:20 -34.00631 151.24069 2440 ft 195 kts 127°
2026-05-05 06:20 -34.01573 151.25323 2747 ft 209 kts 140°
2026-05-05 06:20 -34.02734 151.26497 3029 ft 228 kts 143°
2026-05-05 06:20 -34.04042 151.27751 3352 ft 247 kts 144°
2026-05-05 06:21 -34.05438 151.29092 3768 ft 262 kts 143°
2026-05-05 06:21 -34.06875 151.30489 4418 ft 268 kts 143°
2026-05-05 06:21 -34.08330 151.31912 5133 ft 270 kts 143°
2026-05-05 06:21 -34.09789 151.33340 5816 ft 274 kts 143°
2026-05-05 06:22 -34.11206 151.34923 6477 ft 281 kts 128°
2026-05-05 06:22 -34.11950 151.37947 7332 ft 291 kts 86°
2026-05-05 06:22 -34.11675 151.39508 7752 ft 293 kts 67°
2026-05-05 06:22 -34.10525 151.41550 8401 ft 294 kts 45°
2026-05-05 06:23 -34.09098 151.43339 9026 ft 299 kts 44°
2026-05-05 06:23 -34.07165 151.45740 9870 ft 302 kts 39°
2026-05-05 06:23 -34.06047 151.46747 10276 ft 301 kts 28°
2026-05-05 06:23 -34.04127 151.47766 10672 ft 309 kts 14°
2026-05-05 06:24 -34.01993 151.48467 10965 ft 324 kts 11°
2026-05-05 06:24 -33.99905 151.49095 11213 ft 338 kts 11°
2026-05-05 06:24 -33.97595 151.49805 11466 ft 352 kts 11°
2026-05-05 06:24 -33.95115 151.50592 11726 ft 367 kts 12°
2026-05-05 06:25 -33.92599 151.51405 11965 ft 380 kts 12°
2026-05-05 06:25 -33.89923 151.52280 12202 ft 393 kts 12°
2026-05-05 06:25 -33.87155 151.53185 12441 ft 405 kts 12°
2026-05-05 06:25 -33.84419 151.54079 12845 ft 410 kts 12°
2026-05-05 06:26 -33.81661 151.54980 13363 ft 412 kts 12°
2026-05-05 06:26 -33.78895 151.55885 13850 ft 415 kts 12°
2026-05-05 06:26 -33.76092 151.56801 14327 ft 418 kts 12°
2026-05-05 06:26 -33.73294 151.57715 14758 ft 421 kts 12°
2026-05-05 06:27 -33.70426 151.58647 15227 ft 424 kts 13°
2026-05-05 06:27 -33.63895 151.61401 16276 ft 432 kts 23°
2026-05-05 06:27 -33.62147 151.62524 16568 ft 434 kts 27°
2026-05-05 06:28 -33.59638 151.64421 16978 ft 437 kts 31°
2026-05-05 06:28 -33.57040 151.66498 17374 ft 440 kts 31°
2026-05-05 06:28 -33.54363 151.68642 17764 ft 442 kts 31°
2026-05-05 06:28 -33.51805 151.70598 18117 ft 443 kts 27°
2026-05-05 06:29 -33.48980 151.72317 18465 ft 443 kts 20°
2026-05-05 06:29 -33.46087 151.73630 18824 ft 443 kts 14°
2026-05-05 06:29 -33.43132 151.74644 19182 ft 443 kts 11°
2026-05-05 06:29 -33.40151 151.75591 19534 ft 444 kts 11°
2026-05-05 06:30 -33.36163 151.76851 19992 ft 445 kts 11°
2026-05-05 06:30 -33.34170 151.77487 20213 ft 446 kts 11°
2026-05-05 06:30 -33.31138 151.78459 20531 ft 448 kts 11°
2026-05-05 06:30 -33.27130 151.79747 20927 ft 450 kts 11°
2026-05-05 06:31 -33.25120 151.80394 21118 ft 451 kts 11°
2026-05-05 06:31 -33.22076 151.81374 21408 ft 452 kts 11°
2026-05-05 06:31 -33.19036 151.82353 21691 ft 454 kts 11°
2026-05-05 06:31 -33.16009 151.83328 21967 ft 455 kts 11°
2026-05-05 06:32 -33.12951 151.84312 22228 ft 456 kts 10°
2026-05-05 06:32 -33.09885 151.85298 22470 ft 458 kts 10°
2026-05-05 06:32 -33.06805 151.86290 22708 ft 459 kts 10°
2026-05-05 06:32 -33.03715 151.87282 22952 ft 460 kts 10°
2026-05-05 06:33 -33.00605 151.88280 23218 ft 461 kts 10°
2026-05-05 06:33 -32.97501 151.89273 23481 ft 461 kts 10°
2026-05-05 06:33 -32.94425 151.90262 23861 ft 459 kts
2026-05-05 06:33 -32.90353 151.91569 24392 ft 455 kts
2026-05-05 06:34 -32.88314 151.92223 24646 ft 454 kts
2026-05-05 06:34 -32.85256 151.93201 25002 ft 452 kts
2026-05-05 06:34 -32.82257 151.94161 25354 ft 450 kts
2026-05-05 06:34 -32.79204 151.95136 25704 ft 449 kts
2026-05-05 06:35 -32.76185 151.96097 26066 ft 447 kts
2026-05-05 06:35 -32.73201 151.97049 26436 ft 445 kts
2026-05-05 06:35 -32.70214 151.98000 26762 ft 444 kts
2026-05-05 06:35 -32.66232 151.99269 27223 ft 441 kts
2026-05-05 06:36 -32.64272 151.99892 27450 ft 440 kts
2026-05-05 06:36 -32.61328 152.00829 27780 ft 439 kts
2026-05-05 06:36 -32.58370 152.01767 28133 ft 437 kts
2026-05-05 06:36 -32.55464 152.02692 28508 ft 435 kts
2026-05-05 06:37 -32.52531 152.03622 28916 ft 431 kts
2026-05-05 06:37 -32.49639 152.04542 29322 ft 428 kts
2026-05-05 06:37 -32.46789 152.05446 29694 ft 426 kts
2026-05-05 06:37 -32.43982 152.06332 29996 ft 425 kts
2026-05-05 06:38 -32.41141 152.07231 30261 ft 425 kts
2026-05-05 06:38 -32.38295 152.08130 30537 ft 425 kts
2026-05-05 06:38 -32.35458 152.09027 30819 ft 424 kts
2026-05-05 06:38 -32.32650 152.09912 31104 ft 424 kts
2026-05-05 06:39 -32.29824 152.10803 31383 ft 423 kts
2026-05-05 06:39 -32.26971 152.11705 31671 ft 422 kts
2026-05-05 06:39 -32.24153 152.12593 31951 ft 421 kts
2026-05-05 06:39 -32.21313 152.13487 32236 ft 420 kts
2026-05-05 06:40 -32.18521 152.14368 32528 ft 419 kts
2026-05-05 06:40 -32.15761 152.15236 32794 ft 418 kts
2026-05-05 06:40 -32.12961 152.16118 33067 ft 417 kts
2026-05-05 06:40 -32.10157 152.16998 33268 ft 418 kts
2026-05-05 06:41 -32.07348 152.17877 33435 ft 419 kts
2026-05-05 06:41 -32.04561 152.18750 33624 ft 420 kts
2026-05-05 06:41 -32.01728 152.19638 33823 ft 420 kts
2026-05-05 06:41 -31.98885 152.20528 33991 ft 421 kts
2026-05-05 06:42 -31.96062 152.21413 34200 ft 422 kts
2026-05-05 06:42 -31.93249 152.22293 34379 ft 422 kts
2026-05-05 06:42 -31.89431 152.23488 34614 ft 423 kts
2026-05-05 06:42 -31.87548 152.24077 34745 ft 423 kts
2026-05-05 06:43 -31.84711 152.24962 34921 ft 424 kts
2026-05-05 06:43 -31.81830 152.25861 35079 ft 425 kts
2026-05-05 06:43 -31.78999 152.26744 35083 ft 425 kts
2026-05-05 06:44 -31.73264 152.28531 35090 ft 426 kts
2026-05-05 06:44 -31.67537 152.30315 35092 ft 427 kts
2026-05-05 06:45 -31.61799 152.32100 35095 ft 424 kts
2026-05-05 06:45 -31.55119 152.34175 35097 ft 426 kts
2026-05-05 06:46 -31.50369 152.35646 35097 ft 425 kts
2026-05-05 06:46 -31.44702 152.37402 35099 ft 424 kts
2026-05-05 06:47 -31.38985 152.39171 35101 ft 425 kts
2026-05-05 06:47 -31.33284 152.40930 35101 ft 424 kts
2026-05-05 06:48 -31.27563 152.42699 35103 ft 423 kts
2026-05-05 06:48 -31.21818 152.44469 35100 ft 423 kts
2026-05-05 06:49 -31.16109 152.46225 35100 ft 424 kts
2026-05-05 06:49 -31.10409 152.47978 35100 ft 424 kts
2026-05-05 06:50 -31.04712 152.49728 35101 ft 423 kts
2026-05-05 06:50 -30.99015 152.51477 35101 ft 423 kts
2026-05-05 06:51 -30.93343 152.53214 35094 ft 420 kts
2026-05-05 06:51 -30.87699 152.54942 35098 ft 421 kts
2026-05-05 06:52 -30.82001 152.56682 35093 ft 422 kts
2026-05-05 06:52 -30.76353 152.58612 35091 ft 425 kts
2026-05-05 06:53 -30.70720 152.60657 35087 ft 426 kts
2026-05-05 06:53 -30.65061 152.62711 35086 ft 423 kts
2026-05-05 06:54 -30.59435 152.64746 35092 ft 427 kts
2026-05-05 06:54 -30.53753 152.66801 35090 ft 426 kts
2026-05-05 06:55 -30.48140 152.68832 35088 ft 423 kts
2026-05-05 06:55 -30.42630 152.70821 35087 ft 423 kts
2026-05-05 06:56 -30.37107 152.72813 35092 ft 424 kts
2026-05-05 06:56 -30.31537 152.74817 35091 ft 424 kts
2026-05-05 06:57 -30.25998 152.76810 35098 ft 423 kts
2026-05-05 06:57 -30.20384 152.78830 35095 ft 422 kts
2026-05-05 06:58 -30.14817 152.80827 35089 ft 420 kts
2026-05-05 06:58 -30.09261 152.82820 35087 ft 423 kts
2026-05-05 06:59 -30.03644 152.84830 35090 ft 422 kts
2026-05-05 06:59 -29.98030 152.86842 35080 ft 421 kts
2026-05-05 07:00 -29.92513 152.88812 35077 ft 421 kts
2026-05-05 07:00 -29.86881 152.90817 35078 ft 422 kts
2026-05-05 07:01 -29.81431 152.92760 35072 ft 422 kts
2026-05-05 07:01 -29.74984 152.95055 35064 ft 423 kts
2026-05-05 07:02 -29.70583 152.96619 35069 ft 420 kts
2026-05-05 07:02 -29.64984 152.98607 35065 ft 421 kts
2026-05-05 07:03 -29.59459 153.00568 35064 ft 421 kts
2026-05-05 07:03 -29.53820 153.02565 35060 ft 421 kts
2026-05-05 07:04 -29.48385 153.04491 35058 ft 422 kts
2026-05-05 07:04 -29.42896 153.06429 35053 ft 420 kts
2026-05-05 07:05 -29.37450 153.08354 35057 ft 419 kts
2026-05-05 07:05 -29.31803 153.10347 35053 ft 419 kts
2026-05-05 07:06 -29.26338 153.12268 35052 ft 420 kts
2026-05-05 07:06 -29.20834 153.14203 34721 ft 418 kts
2026-05-05 07:06 -29.18995 153.14850 34544 ft 418 kts
2026-05-05 07:07 -29.15031 153.16242 34165 ft 414 kts
2026-05-05 07:07 -29.12251 153.17223 33897 ft 411 kts
2026-05-05 07:07 -29.09509 153.18185 33634 ft 411 kts
2026-05-05 07:07 -29.06770 153.19144 33371 ft 411 kts
2026-05-05 07:08 -29.04038 153.20099 33107 ft 411 kts
2026-05-05 07:08 -29.01217 153.21086 32839 ft 412 kts
2026-05-05 07:08 -28.98461 153.22049 32578 ft 414 kts
2026-05-05 07:08 -28.95678 153.23021 32322 ft 418 kts
2026-05-05 07:09 -28.92922 153.23985 32064 ft 418 kts
2026-05-05 07:09 -28.90005 153.25005 31792 ft 419 kts
2026-05-05 07:09 -28.87118 153.26013 31399 ft 423 kts
2026-05-05 07:09 -28.84279 153.27002 30846 ft 427 kts
2026-05-05 07:10 -28.81422 153.27998 30120 ft 429 kts
2026-05-05 07:10 -28.78561 153.28995 29263 ft 433 kts
2026-05-05 07:10 -28.75730 153.29979 28414 ft 438 kts
2026-05-05 07:10 -28.72846 153.30977 27488 ft 444 kts
2026-05-05 07:11 -28.70192 153.31898 26636 ft 449 kts
2026-05-05 07:11 -28.67525 153.32826 25748 ft 454 kts
2026-05-05 07:11 -28.64741 153.33792 24824 ft 459 kts
2026-05-05 07:11 -28.61812 153.34810 23827 ft 461 kts 10°
2026-05-05 07:12 -28.59085 153.35767 22966 ft 451 kts 10°
2026-05-05 07:12 -28.56150 153.36798 22328 ft 440 kts 11°
2026-05-05 07:12 -28.53349 153.37778 21687 ft 432 kts 11°
2026-05-05 07:12 -28.50494 153.38776 21076 ft 427 kts 11°
2026-05-05 07:13 -28.47785 153.39714 20508 ft 424 kts 11°
2026-05-05 07:13 -28.44932 153.40704 19899 ft 420 kts 11°
2026-05-05 07:13 -28.42248 153.41634 19354 ft 417 kts 11°
2026-05-05 07:13 -28.39628 153.42540 18794 ft 414 kts 12°
2026-05-05 07:14 -28.36936 153.43471 18228 ft 411 kts 12°
2026-05-05 07:14 -28.34216 153.44411 17630 ft 409 kts 12°
2026-05-05 07:14 -28.31487 153.45355 17055 ft 407 kts 12°
2026-05-05 07:14 -28.28833 153.46272 16464 ft 405 kts 13°
2026-05-05 07:15 -28.26159 153.47195 15851 ft 403 kts 13°
2026-05-05 07:15 -28.23454 153.48125 15200 ft 403 kts 14°
2026-05-05 07:15 -28.20755 153.49052 14539 ft 401 kts 13°
2026-05-05 07:15 -28.17999 153.49507 13858 ft 395 kts 357°
2026-05-05 07:16 -28.15358 153.48978 13161 ft 392 kts 340°
2026-05-05 07:16 -28.13026 153.47630 12483 ft 391 kts 326°
2026-05-05 07:16 -28.10822 153.45949 11968 ft 386 kts 325°
2026-05-05 07:16 -28.08699 153.44304 11653 ft 365 kts 325°
2026-05-05 07:17 -28.06717 153.42780 11367 ft 343 kts 325°
2026-05-05 07:17 -28.04757 153.41287 11099 ft 328 kts 326°
2026-05-05 07:17 -28.02920 153.39899 10859 ft 318 kts 326°
2026-05-05 07:17 -28.01100 153.38524 10648 ft 308 kts 326°
2026-05-05 07:18 -27.99371 153.37222 10398 ft 300 kts 326°
2026-05-05 07:18 -27.97665 153.35941 10268 ft 289 kts 327°
2026-05-05 07:18 -27.96101 153.34700 10138 ft 280 kts 323°
2026-05-05 07:18 -27.94641 153.33389 10017 ft 275 kts 321°
2026-05-05 07:19 -27.93180 153.32036 9678 ft 277 kts 321°
2026-05-05 07:19 -27.91698 153.30658 9309 ft 279 kts 321°
2026-05-05 07:19 -27.90206 153.29277 8954 ft 279 kts 320°
2026-05-05 07:19 -27.88794 153.27971 8635 ft 279 kts 320°
2026-05-05 07:20 -27.87470 153.26747 8342 ft 278 kts 320°
2026-05-05 07:20 -27.86068 153.25453 8054 ft 276 kts 320°
2026-05-05 07:20 -27.84687 153.24203 7982 ft 271 kts 322°
2026-05-05 07:20 -27.83217 153.22945 7584 ft 277 kts 322°
2026-05-05 07:21 -27.81720 153.21678 7147 ft 281 kts 322°
2026-05-05 07:21 -27.80230 153.20419 6776 ft 281 kts 322°
2026-05-05 07:21 -27.78761 153.19124 6429 ft 279 kts 317°
2026-05-05 07:21 -27.77483 153.17699 6093 ft 278 kts 310°
2026-05-05 07:22 -27.76347 153.16130 5760 ft 276 kts 307°
2026-05-05 07:22 -27.75315 153.14612 5454 ft 275 kts 306°
2026-05-05 07:22 -27.74261 153.13054 5151 ft 273 kts 307°
2026-05-05 07:22 -27.73243 153.11559 4862 ft 272 kts 307°
2026-05-05 07:23 -27.72241 153.10098 4564 ft 270 kts 307°
2026-05-05 07:23 -27.71263 153.08678 4284 ft 269 kts 308°
2026-05-05 07:23 -27.70147 153.07063 3968 ft 267 kts 308°
2026-05-05 07:23 -27.69062 153.05495 3705 ft 263 kts 308°
2026-05-05 07:24 -27.68012 153.03978 3617 ft 252 kts 308°
2026-05-05 07:24 -27.67133 153.02624 3530 ft 243 kts 304°
2026-05-05 07:24 -27.66314 153.01192 3273 ft 243 kts 303°
2026-05-05 07:24 -27.65273 152.99831 2986 ft 241 kts 329°
2026-05-05 07:25 -27.63872 152.99245 3004 ft 241 kts 351°
2026-05-05 07:25 -27.62422 152.99200 2993 ft 240 kts 11°
2026-05-05 07:25 -27.61008 152.99754 3001 ft 235 kts 28°
2026-05-05 07:25 -27.59736 153.00537 2981 ft 222 kts 31°
2026-05-05 07:26 -27.58507 153.01326 3057 ft 204 kts 31°
2026-05-05 07:26 -27.57423 153.01994 3004 ft 189 kts 30°
2026-05-05 07:26 -27.56370 153.02623 2960 ft 173 kts 29°
2026-05-05 07:26 -27.55417 153.03177 2946 ft 160 kts 30°
2026-05-05 07:27 -27.54505 153.03703 2963 ft 161 kts 29°
2026-05-05 07:27 -27.53585 153.04230 2834 ft 161 kts 29°
2026-05-05 07:27 -27.52659 153.04759 2639 ft 159 kts 28°
2026-05-05 07:27 -27.51717 153.05295 2439 ft 158 kts 29°
2026-05-05 07:28 -27.50781 153.05826 2249 ft 156 kts 29°
2026-05-05 07:28 -27.49962 153.06293 2067 ft 146 kts 28°
2026-05-05 07:28 -27.49146 153.06757 1889 ft 142 kts 30°
2026-05-05 07:28 -27.48326 153.07225 1725 ft 142 kts 29°
2026-05-05 07:29 -27.47479 153.07709 1558 ft 141 kts 29°
2026-05-05 07:29 -27.46589 153.08217 1377 ft 141 kts 29°
2026-05-05 07:29 -27.45721 153.08708 1187 ft 140 kts 28°
2026-05-05 07:29 -27.44859 153.09190 1001 ft 140 kts 28°
2026-05-05 07:30 -27.43996 153.09680 822 ft 139 kts 30°
2026-05-05 07:30 -27.42246 153.10689 480 ft 139 kts 28°
2026-05-05 07:30 -27.41377 153.11185 277 ft 138 kts 28°
2026-05-05 07:31 -27.40518 153.11685 111 ft 138 kts 28°
2026-05-05 07:31 -27.39664 153.12181 21 ft 119 kts 26°
2026-05-05 07:31 -27.39078 153.12514 21 ft 69 kts 28°
2026-05-05 07:31 -27.38749 153.12653 21 ft 32 kts
2026-05-05 07:32 -27.38615 153.12657 21 ft 12 kts 358°
2026-05-05 07:32 -27.38545 153.12654 21 ft 4 kts 358°
2026-05-05 07:32 -27.38510 153.12653 21 ft 5 kts 358°
2026-05-05 07:32 -27.38471 153.12651 21 ft 6 kts 357°
2026-05-05 07:33 -27.38423 153.12648 21 ft 7 kts 355°
2026-05-05 07:33 -27.38377 153.12619 21 ft 9 kts 309°
2026-05-05 07:33 -27.38330 153.12564 21 ft 12 kts 314°
2026-05-05 07:33 -27.38285 153.12488 21 ft 14 kts 297°
2026-05-05 07:34 -27.38246 153.12399 21 ft 14 kts 295°
2026-05-05 07:34 -27.38220 153.12338 21 ft 4 kts 291°
2026-05-05 07:34 -27.38224 153.12305 21 ft 5 kts 237°
2026-05-05 07:34 -27.38245 153.12276 21 ft 2 kts 230°
2026-05-05 07:35 -27.38249 153.12270 21 ft 1 kts 229°
2026-05-05 07:35 -27.38254 153.12264 21 ft 0 kts 228°